| time (UTC) | temp C | wind direction | speed KPH | gust KPH | rain 1hr cm | rain 24hr cm | rain mn cm | humidity % | barometer mb |
| 20260503184721 | 13 | 292 | 29.0 | 38.6 | 0.00 | 0.00 | 0.00 | 40 | 1015.6 |
| 20260503184218 | 13 | 286 | 17.7 | 24.1 | 0.00 | 0.00 | 0.00 | 40 | 1015.8 |
| 20260503183714 | 13 | 320 | 8.0 | 24.1 | 0.00 | 0.00 | 0.00 | 41 | 1015.8 |
| 20260503183211 | 13 | 299 | 25.7 | 29.0 | 0.00 | 0.00 | 0.00 | 43 | 1015.7 |
| 20260503182709 | 13 | 321 | 9.7 | 24.1 | 0.00 | 0.00 | 0.00 | 41 | 1015.8 |
| 20260503182208 | 13 | 278 | 24.1 | 33.8 | 0.00 | 0.00 | 0.00 | 43 | 1016.0 |
| 20260503181704 | 13 | 300 | 17.7 | 27.4 | 0.00 | 0.00 | 0.00 | 43 | 1016.1 |
| 20260503181201 | 13 | 324 | 14.5 | 17.7 | 0.00 | 0.00 | 0.00 | 43 | 1015.9 |
| 20260503180657 | 13 | 341 | 16.1 | 22.5 | 0.00 | 0.00 | 0.00 | 43 | 1015.7 |
| 20260503180156 | 12 | 44 | 0.0 | 11.3 | 0.00 | 0.00 | 0.00 | 45 | 1016.3 |
| 20260503175652 | 12 | 283 | 19.3 | 24.1 | 0.00 | 0.00 | 0.00 | 43 | 1016.2 |
| 20260503175150 | 12 | 310 | 12.9 | 24.1 | 0.00 | 0.00 | 0.00 | 43 | 1016.1 |
| 20260503174646 | 12 | 295 | 22.5 | 27.4 | 0.00 | 0.00 | 0.00 | 42 | 1016.2 |
| 20260503174143 | 12 | 267 | 14.5 | 24.1 | 0.00 | 0.00 | 0.00 | 43 | 1016.3 |
| 20260503173638 | 12 | 258 | 29.0 | 35.4 | 0.00 | 0.00 | 0.00 | 45 | 1016.3 |
| 20260503173135 | 12 | 248 | 29.0 | 35.4 | 0.00 | 0.00 | 0.00 | 45 | 1015.9 |
| 20260503172632 | 12 | 273 | 19.3 | 27.4 | 0.00 | 0.00 | 0.00 | 44 | 1016.2 |
| 20260503172129 | 12 | 245 | 11.3 | 22.5 | 0.00 | 0.00 | 0.00 | 43 | 1016.3 |
| 20260503171626 | 12 | 281 | 24.1 | 25.7 | 0.00 | 0.00 | 0.00 | 44 | 1016.4 |
| 20260503171123 | 11 | 266 | 19.3 | 22.5 | 0.00 | 0.00 | 0.00 | 45 | 1016.5 |
| 20260503170620 | 12 | 317 | 24.1 | 25.7 | 0.00 | 0.00 | 0.00 | 45 | 1016.6 |
| 20260503170117 | 12 | 294 | 27.4 | 29.0 | 0.00 | 0.00 | 0.00 | 46 | 1016.7 |
| 20260503151012 | 10 | 330 | 9.7 | 25.7 | 0.00 | 0.00 | 0.00 | 47 | 1017.5 |
| 20260503150509 | 9 | 249 | 8.0 | 14.5 | 0.00 | 0.00 | 0.00 | 48 | 1017.3 |
| 20260503131401 | 6 | 303 | 19.3 | 25.7 | 0.00 | 0.00 | 0.00 | 63 | 1017.7 |
| 20260503130859 | 6 | 300 | 11.3 | 29.0 | 0.00 | 0.00 | 0.00 | 63 | 1017.5 |
| 20260503130356 | 6 | 279 | 11.3 | 12.9 | 0.00 | 0.00 | 0.00 | 65 | 1017.7 |
| 20260503110755 | 2 | 255 | 12.9 | 16.1 | 0.00 | 0.00 | 0.00 | 76 | 1017.2 |
| 20260503110252 | 2 | 298 | 4.8 | 14.5 | 0.00 | 0.00 | 0.00 | 74 | 1017.1 |
| 20260503100218 | 2 | 282 | 11.3 | 12.9 | 0.00 | 0.00 | 0.00 | 76 | 1016.5 |
| 20260503090148 | 2 | 279 | 6.4 | 9.7 | 0.00 | 0.00 | 0.00 | 74 | 1016.4 |
| 20260503081623 | 2 | 310 | 4.8 | 6.4 | 0.00 | 0.00 | 0.00 | 73 | 1016.0 |
| 20260503081120 | 2 | 280 | 8.0 | 12.9 | 0.00 | 0.00 | 0.00 | 74 | 1016.2 |
| 20260503080616 | 2 | 1 | 6.4 | 9.7 | 0.00 | 0.00 | 0.00 | 73 | 1016.1 |
| 20260503080113 | 2 | 329 | 6.4 | 12.9 | 0.00 | 0.00 | 0.00 | 73 | 1015.9 |
| 20260503072550 | 3 | 279 | 6.4 | 11.3 | 0.00 | 0.00 | 0.00 | 73 | 1015.7 |
| 20260503072048 | 3 | 279 | 9.7 | 14.5 | 0.00 | 0.00 | 0.00 | 72 | 1015.8 |
| 20260503071544 | 2 | 317 | 6.4 | 11.3 | 0.00 | 0.00 | 0.00 | 73 | 1015.8 |
| 20260503071041 | 2 | 306 | 4.8 | 4.8 | 0.00 | 0.00 | 0.00 | 73 | 1015.7 |
| 20260503070537 | 3 | 287 | 6.4 | 11.3 | 0.00 | 0.00 | 0.00 | 72 | 1015.8 |
| 20260503054951 | 3 | 33 | 3.2 | 11.3 | 0.00 | 0.00 | 0.00 | 70 | 1015.7 |
| 20260503054447 | 3 | 30 | 0.0 | 3.2 | 0.00 | 0.00 | 0.00 | 70 | 1015.7 |
| 20260503053945 | 3 | 232 | 4.8 | 9.7 | 0.00 | 0.00 | 0.00 | 70 | 1015.8 |
| 20260503053443 | 3 | 24 | 8.0 | 9.7 | 0.00 | 0.00 | 0.00 | 69 | 1015.6 |
| 20260503052939 | 3 | 339 | 4.8 | 9.7 | 0.00 | 0.00 | 0.00 | 69 | 1015.8 |
| 20260503052437 | 4 | 350 | 3.2 | 9.7 | 0.00 | 0.00 | 0.00 | 67 | 1015.6 |
| 20260503051932 | 3 | 12 | 11.3 | 20.9 | 0.00 | 0.00 | 0.00 | 68 | 1015.8 |
| 20260503051428 | 4 | 311 | 9.7 | 12.9 | 0.00 | 0.00 | 0.00 | 68 | 1016.0 |
| 20260503050926 | 4 | 239 | 3.2 | 6.4 | 0.00 | 0.00 | 0.00 | 67 | 1016.0 |
| 20260503050422 | 4 | 280 | 9.7 | 20.9 | 0.00 | 0.00 | 0.00 | 67 | 1016.0 |
| 20260503045920 | 4 | 293 | 9.7 | 11.3 | 0.00 | 0.00 | 0.00 | 67 | 1016.0 |
| 20260503045417 | 4 | 268 | 8.0 | 11.3 | 0.00 | 0.00 | 0.00 | 66 | 1016.0 |
| 20260503044913 | 4 | 298 | 4.8 | 11.3 | 0.00 | 0.00 | 0.00 | 66 | 1015.9 |
| 20260503044410 | 5 | 316 | 4.8 | 6.4 | 0.00 | 0.00 | 0.00 | 67 | 1015.9 |
| 20260503043908 | 5 | 340 | 9.7 | 12.9 | 0.00 | 0.00 | 0.00 | 66 | 1016.0 |
| 20260503043404 | 5 | 300 | 4.8 | 6.4 | 0.00 | 0.00 | 0.00 | 68 | 1015.8 |
| 20260503042900 | 5 | 336 | 6.4 | 9.7 | 0.00 | 0.00 | 0.00 | 67 | 1015.9 |
| 20260503042357 | 5 | 359 | 6.4 | 6.4 | 0.00 | 0.00 | 0.00 | 69 | 1015.9 |
| 20260503041853 | 5 | 300 | 6.4 | 11.3 | 0.00 | 0.00 | 0.00 | 68 | 1016.2 |
| 20260503041350 | 5 | 357 | 6.4 | 12.9 | 0.00 | 0.00 | 0.00 | 67 | 1016.1 |
| 20260503040848 | 5 | 22 | 0.0 | 3.2 | 0.00 | 0.00 | 0.00 | 67 | 1016.0 |
| 20260503040346 | 5 | 329 | 3.2 | 9.7 | 0.00 | 0.00 | 0.00 | 67 | 1015.9 |
| 20260503035842 | 5 | 298 | 9.7 | 11.3 | 0.00 | 0.03 | 0.03 | 70 | 1016.0 |
| 20260503035339 | 5 | 275 | 3.2 | 6.4 | 0.00 | 0.03 | 0.03 | 69 | 1016.0 |
| 20260503034837 | 5 | 321 | 6.4 | 11.3 | 0.00 | 0.03 | 0.03 | 69 | 1016.1 |
| 20260503034334 | 5 | 324 | 9.7 | 12.9 | 0.00 | 0.03 | 0.03 | 68 | 1016.0 |
| 20260503033831 | 5 | 310 | 6.4 | 6.4 | 0.00 | 0.03 | 0.03 | 70 | 1016.1 |
| 20260503033328 | 5 | 314 | 1.6 | 9.7 | 0.00 | 0.03 | 0.03 | 71 | 1016.1 |
| 20260503032826 | 5 | 273 | 8.0 | 9.7 | 0.00 | 0.03 | 0.03 | 68 | 1016.2 |
| 20260503032325 | 5 | 261 | 8.0 | 11.3 | 0.00 | 0.03 | 0.03 | 70 | 1016.3 |
| 20260503031822 | 5 | 359 | 1.6 | 3.2 | 0.00 | 0.03 | 0.03 | 69 | 1016.2 |
| 20260503031320 | 5 | 26 | 4.8 | 14.5 | 0.00 | 0.03 | 0.03 | 70 | 1016.4 |
| 20260503030816 | 5 | 334 | 8.0 | 11.3 | 0.00 | 0.03 | 0.03 | 71 | 1016.3 |
| 20260503030313 | 5 | 268 | 6.4 | 11.3 | 0.00 | 0.03 | 0.03 | 71 | 1016.4 |
| 20260503025809 | 5 | 272 | 8.0 | 12.9 | 0.00 | 0.03 | 0.03 | 73 | 1016.6 |
| 20260503025307 | 5 | 321 | 6.4 | 11.3 | 0.00 | 0.03 | 0.03 | 72 | 1016.4 |
| 20260503024803 | 5 | 283 | 4.8 | 6.4 | 0.00 | 0.03 | 0.03 | 72 | 1016.4 |
| 20260503024300 | 5 | 330 | 4.8 | 6.4 | 0.00 | 0.03 | 0.03 | 71 | 1016.5 |
| 20260503023757 | 5 | 301 | 1.6 | 3.2 | 0.00 | 0.03 | 0.03 | 71 | 1016.4 |
| 20260503023254 | 5 | 299 | 4.8 | 6.4 | 0.00 | 0.03 | 0.03 | 71 | 1016.4 |
| 20260503022750 | 5 | 324 | 6.4 | 9.7 | 0.00 | 0.03 | 0.03 | 71 | 1016.4 |
| 20260503022245 | 5 | 7 | 6.4 | 9.7 | 0.00 | 0.03 | 0.03 | 74 | 1016.4 |
| 20260503021742 | 5 | 268 | 4.8 | 6.4 | 0.00 | 0.03 | 0.03 | 71 | 1016.4 |
| 20260503021238 | 5 | 300 | 6.4 | 9.7 | 0.00 | 0.03 | 0.03 | 73 | 1016.5 |
| 20260503020736 | 5 | 336 | 6.4 | 6.4 | 0.00 | 0.03 | 0.03 | 73 | 1016.4 |
| 20260503020233 | 5 | 319 | 9.7 | 11.3 | 0.00 | 0.03 | 0.03 | 72 | 1016.3 |
| 20260503015730 | 5 | 319 | 11.3 | 17.7 | 0.00 | 0.03 | 0.03 | 72 | 1016.4 |
| 20260503015227 | 5 | 289 | 6.4 | 14.5 | 0.00 | 0.03 | 0.03 | 73 | 1016.2 |
| 20260503014722 | 5 | 25 | 3.2 | 6.4 | 0.00 | 0.03 | 0.03 | 74 | 1016.3 |
| 20260503014221 | 5 | 271 | 4.8 | 6.4 | 0.00 | 0.03 | 0.03 | 75 | 1016.2 |
| 20260503013718 | 5 | 289 | 1.6 | 9.7 | 0.00 | 0.03 | 0.03 | 75 | 1016.2 |
| 20260503013215 | 5 | 325 | 6.4 | 14.5 | 0.00 | 0.03 | 0.03 | 74 | 1016.1 |
| 20260503012713 | 5 | 237 | 4.8 | 12.9 | 0.00 | 0.03 | 0.03 | 74 | 1016.2 |
| 20260503012210 | 5 | 312 | 6.4 | 12.9 | 0.00 | 0.03 | 0.03 | 74 | 1016.2 |
| 20260503011706 | 5 | 332 | 8.0 | 12.9 | 0.00 | 0.03 | 0.03 | 74 | 1016.1 |
| 20260503011203 | 5 | 250 | 4.8 | 6.4 | 0.00 | 0.03 | 0.03 | 74 | 1015.9 |
| 20260503010659 | 5 | 292 | 4.8 | 6.4 | 0.00 | 0.03 | 0.03 | 73 | 1016.1 |
| 20260503010156 | 5 | 294 | 6.4 | 14.5 | 0.00 | 0.03 | 0.03 | 73 | 1016.0 |
| 20260503005654 | 5 | 232 | 8.0 | 12.9 | 0.00 | 0.03 | 0.03 | 72 | 1016.0 |
| 20260503005151 | 6 | 347 | 8.0 | 9.7 | 0.00 | 0.03 | 0.03 | 72 | 1015.9 |
| 20260503004647 | 6 | 354 | 6.4 | 11.3 | 0.00 | 0.03 | 0.03 | 71 | 1015.9 |
| 20260503004146 | 6 | 333 | 9.7 | 11.3 | 0.00 | 0.03 | 0.03 | 71 | 1015.8 |
| 20260503003642 | 6 | 266 | 9.7 | 12.9 | 0.00 | 0.03 | 0.03 | 72 | 1016.0 |
| 20260503003139 | 6 | 326 | 9.7 | 12.9 | 0.00 | 0.03 | 0.03 | 72 | 1015.6 |
| 20260503002636 | 6 | 270 | 6.4 | 14.5 | 0.00 | 0.03 | 0.03 | 70 | 1015.7 |
| 20260503002133 | 6 | 311 | 3.2 | 11.3 | 0.00 | 0.03 | 0.03 | 71 | 1015.7 |
| 20260503001629 | 6 | 301 | 9.7 | 11.3 | 0.00 | 0.03 | 0.03 | 71 | 1015.7 |
| 20260503001126 | 6 | 278 | 12.9 | 25.7 | 0.00 | 0.03 | 0.03 | 70 | 1015.5 |
| 20260503000624 | 6 | 260 | 9.7 | 14.5 | 0.00 | 0.03 | 0.03 | 69 | 1015.7 |
| 20260503000120 | 6 | 320 | 3.2 | 22.5 | 0.00 | 0.03 | 0.03 | 69 | 1015.4 |
| 20260502235617 | 6 | 329 | 12.9 | 16.1 | 0.00 | 0.03 | 0.03 | 72 | 1015.5 |
| 20260502235115 | 6 | 307 | 6.4 | 12.9 | 0.00 | 0.03 | 0.03 | 72 | 1015.4 |
| 20260502234615 | 6 | 279 | 9.7 | 16.1 | 0.00 | 0.03 | 0.03 | 72 | 1015.5 |
| 20260502234114 | 6 | 286 | 14.5 | 16.1 | 0.00 | 0.03 | 0.03 | 73 | 1015.5 |
| 20260502233609 | 6 | 321 | 9.7 | 17.7 | 0.00 | 0.03 | 0.03 | 72 | 1015.4 |
| 20260502233106 | 6 | 7 | 6.4 | 14.5 | 0.00 | 0.03 | 0.03 | 72 | 1015.3 |
| 20260502232602 | 6 | 271 | 14.5 | 17.7 | 0.00 | 0.03 | 0.03 | 72 | 1015.1 |
| 20260502232100 | 6 | 305 | 8.0 | 11.3 | 0.00 | 0.03 | 0.03 | 71 | 1015.1 |
| 20260502231556 | 6 | 11 | 6.4 | 11.3 | 0.00 | 0.03 | 0.03 | 71 | 1015.1 |
| 20260502231054 | 6 | 17 | 4.8 | 14.5 | 0.00 | 0.03 | 0.03 | 71 | 1015.3 |
| 20260502230553 | 6 | 320 | 16.1 | 17.7 | 0.00 | 0.03 | 0.03 | 71 | 1015.1 |
| 20260502230051 | 6 | 322 | 11.3 | 12.9 | 0.00 | 0.03 | 0.03 | 71 | 1015.0 |
| 20260502225546 | 7 | 340 | 20.9 | 22.5 | 0.00 | 0.03 | 0.03 | 70 | 1015.1 |
| 20260502225043 | 7 | 306 | 9.7 | 20.9 | 0.00 | 0.03 | 0.03 | 70 | 1015.0 |
| 20260502224539 | 7 | 276 | 11.3 | 17.7 | 0.00 | 0.03 | 0.03 | 70 | 1015.1 |
| 20260502224036 | 7 | 297 | 12.9 | 14.5 | 0.00 | 0.03 | 0.03 | 70 | 1015.0 |
| 20260502223534 | 7 | 318 | 12.9 | 16.1 | 0.00 | 0.03 | 0.03 | 71 | 1015.3 |
| 20260502223033 | 7 | 305 | 17.7 | 27.4 | 0.00 | 0.03 | 0.03 | 72 | 1015.3 |
| 20260502222529 | 7 | 359 | 12.9 | 20.9 | 0.00 | 0.03 | 0.03 | 70 | 1015.1 |
| 20260502222026 | 7 | 319 | 11.3 | 16.1 | 0.00 | 0.03 | 0.03 | 71 | 1014.9 |
| 20260502221521 | 7 | 316 | 6.4 | 9.7 | 0.00 | 0.03 | 0.03 | 71 | 1014.9 |
| 20260502221019 | 7 | 339 | 9.7 | 11.3 | 0.00 | 0.03 | 0.03 | 72 | 1015.1 |
| 20260502220514 | 7 | 5 | 12.9 | 16.1 | 0.00 | 0.03 | 0.03 | 72 | 1015.1 |
| 20260502220011 | 7 | 333 | 9.7 | 14.5 | 0.00 | 0.03 | 0.03 | 71 | 1015.1 |
| 20260502215509 | 7 | 318 | 11.3 | 22.5 | 0.00 | 0.03 | 0.03 | 71 | 1015.0 |
| 20260502215005 | 7 | 355 | 19.3 | 22.5 | 0.00 | 0.03 | 0.03 | 72 | 1015.0 |
| 20260502214502 | 7 | 348 | 14.5 | 25.7 | 0.00 | 0.03 | 0.03 | 69 | 1015.0 |
| 20260502214000 | 7 | 320 | 20.9 | 24.1 | 0.00 | 0.03 | 0.03 | 70 | 1014.7 |
| 20260502213456 | 7 | 330 | 24.1 | 25.7 | 0.00 | 0.03 | 0.03 | 69 | 1014.9 |
| 20260502212954 | 7 | 284 | 9.7 | 25.7 | 0.00 | 0.03 | 0.03 | 69 | 1014.9 |
| 20260502212453 | 7 | 334 | 20.9 | 22.5 | 0.00 | 0.03 | 0.03 | 68 | 1014.6 |
| 20260502211950 | 7 | 262 | 17.7 | 27.4 | 0.00 | 0.03 | 0.03 | 65 | 1014.7 |
| 20260502211445 | 7 | 330 | 8.0 | 14.5 | 0.00 | 0.03 | 0.03 | 64 | 1014.6 |
| 20260502210943 | 7 | 305 | 8.0 | 17.7 | 0.00 | 0.03 | 0.03 | 64 | 1014.5 |
| 20260502210440 | 8 | 314 | 22.5 | 29.0 | 0.00 | 0.03 | 0.03 | 63 | 1014.6 |
| 20260502205937 | 8 | 291 | 8.0 | 12.9 | 0.00 | 0.03 | 0.03 | 62 | 1014.5 |
| 20260502205433 | 8 | 296 | 9.7 | 14.5 | 0.00 | 0.03 | 0.03 | 61 | 1014.2 |
| 20260502204931 | 8 | 273 | 16.1 | 20.9 | 0.00 | 0.03 | 0.03 | 61 | 1014.5 |
| 20260502204427 | 8 | 292 | 12.9 | 20.9 | 0.00 | 0.03 | 0.03 | 60 | 1014.3 |
| 20260502203925 | 8 | 259 | 9.7 | 14.5 | 0.00 | 0.03 | 0.03 | 62 | 1014.3 |
| 20260502203423 | 8 | 34 | 1.6 | 9.7 | 0.00 | 0.03 | 0.03 | 61 | 1014.4 |
| 20260502202918 | 8 | 16 | 6.4 | 11.3 | 0.00 | 0.03 | 0.03 | 63 | 1014.4 |
| 20260502202415 | 8 | 33 | 3.2 | 9.7 | 0.00 | 0.03 | 0.03 | 62 | 1014.5 |
| 20260502201913 | 8 | 6 | 6.4 | 9.7 | 0.00 | 0.03 | 0.03 | 67 | 1014.6 |
| 20260502201409 | 8 | 344 | 11.3 | 14.5 | 0.00 | 0.03 | 0.03 | 65 | 1014.5 |
| 20260502200906 | 8 | 23 | 4.8 | 9.7 | 0.00 | 0.03 | 0.03 | 65 | 1014.5 |
| 20260502200401 | 8 | 35 | 11.3 | 16.1 | 0.00 | 0.03 | 0.03 | 69 | 1014.5 |
| 20260502195900 | 8 | 337 | 9.7 | 16.1 | 0.00 | 0.03 | 0.03 | 64 | 1014.7 |
| 20260502195356 | 8 | 25 | 6.4 | 11.3 | 0.00 | 0.03 | 0.03 | 67 | 1014.8 |
| 20260502194853 | 7 | 343 | 11.3 | 14.5 | 0.00 | 0.03 | 0.03 | 69 | 1014.8 |
| 20260502194349 | 7 | 344 | 19.3 | 24.1 | 0.00 | 0.03 | 0.03 | 72 | 1015.0 |
| 20260502193845 | 7 | 301 | 14.5 | 29.0 | 0.00 | 0.03 | 0.03 | 69 | 1014.8 |
| 20260502193343 | 7 | 312 | 11.3 | 27.4 | 0.00 | 0.03 | 0.03 | 69 | 1015.1 |
| 20260502192838 | 8 | 284 | 11.3 | 40.2 | 0.00 | 0.03 | 0.03 | 64 | 1015.1 |
| 20260502192335 | 8 | 257 | 6.4 | 6.4 | 0.00 | 0.03 | 0.03 | 63 | 1014.6 |
| 20260502191832 | 8 | 234 | 14.5 | 14.5 | 0.00 | 0.03 | 0.03 | 62 | 1014.9 |
| 20260502191330 | 9 | 228 | 6.4 | 6.4 | 0.00 | 0.03 | 0.03 | 61 | 1014.9 |
| 20260502190827 | 9 | 252 | 3.2 | 9.7 | 0.00 | 0.03 | 0.03 | 61 | 1015.1 |
| 20260502190325 | 8 | 237 | 3.2 | 9.7 | 0.00 | 0.03 | 0.03 | 64 | 1015.0 |
| 20260502185820 | 8 | 109 | 0.0 | 4.8 | 0.00 | 0.03 | 0.03 | 64 | 1015.3 |
| 20260502185316 | 7 | 247 | 3.2 | 6.4 | 0.00 | 0.03 | 0.03 | 65 | 1015.3 |